Millington, TN

6:34 PM CDT on September 29, 2016 (GMT -0500)
Millington Municipal

Weather History for KNQA - August, 2013

Change the Weather History Date:

Saturday, August 3, 2013

  Actual Average Record
Temperature  
Mean Temperature 76 °F -  
Max Temperature 82 °F 89 °F 107 °F (2011)
Min Temperature 71 °F 71 °F 66 °F (2004)
Cooling Degree Days 12    
Growing Degree Days 26 (Base 50)    
Moisture  
Dew Point 73 °F    
Average Humidity 90    
Maximum Humidity 100    
Minimum Humidity 74    
Precipitation  
Precipitation 0.00 in - - ()
Sea Level Pressure  
Sea Level Pressure 30.00 in    
Wind  
Wind Speed 1 mph (NW)    
Max Wind Speed 9 mph    
Max Gust Speed -    
Visibility 9 miles    
Events Rain    
Averages and records for this station are not official NWS values.
T = Trace of Precipitation, MM = Missing Value Source: NWS Daily Summary

Daily Weather History Graph

Daily Weather History Graph

Search for Another Location

Airport or City:

Trip Planner

Search our weather history database for the weather conditions in past years. The results will help you decide how hot, cold, wet, or windy it might be!

Date:

Astronomy

Aug. 03, 2013 Rise Set
Actual Time 6:09 AM CDT 8:00 PM CDT
Civil Twilight 5:42 AM CDT 8:28 PM CDT
Nautical Twilight 5:08 AM CDT 9:02 PM CDT
Astronomical Twilight 4:32 AM CDT 9:37 PM CDT
Moon 3:20 AM CDT (8/3) 5:42 PM CDT (8/3)
Length of Visible Light 14h 46m
Length of Day
13h 50m
Waning Crescent, 9% of the Moon is Illuminated
Aug 3
Waning Crescent
Aug 6
New
Aug 14
First Quarter
Aug 20
Full
Aug 28
Last Quarter

Hourly Weather History & Observations

Time (CDT) Temp. Heat Index Dew Point Humidity Pressure Visibility Wind Dir Wind Speed Gust Speed Precip Events Conditions
12:55 AM 75.2 °F - 71.6 °F 89% 29.97 in 10.0 mi Calm Calm - N/A   Scattered Clouds
1:55 AM 73.4 °F - 71.6 °F 94% 29.96 in 10.0 mi Calm Calm - N/A   Scattered Clouds
2:55 AM 73.4 °F - 71.6 °F 94% 29.96 in 10.0 mi Calm Calm - N/A   Clear
3:15 AM 73.4 °F - 71.6 °F 94% 29.94 in 10.0 mi Calm Calm - N/A   Clear
3:35 AM 75.2 °F - 71.6 °F 89% 29.95 in 10.0 mi Calm Calm - N/A   Clear
3:55 AM 75.2 °F - 71.6 °F 89% 29.95 in 10.0 mi Calm Calm - N/A   Clear
4:15 AM 75.2 °F - 71.6 °F 89% 29.95 in 10.0 mi Calm Calm - N/A   Clear
4:35 AM 75.2 °F - 71.6 °F 89% 29.95 in 10.0 mi Calm Calm - N/A   Clear
4:55 AM 73.4 °F - 71.6 °F 94% 29.95 in 10.0 mi ESE 3.5 mph - N/A   Clear
5:15 AM 73.4 °F - 71.6 °F 94% 29.95 in 10.0 mi Calm Calm - N/A   Clear
5:35 AM 73.4 °F - 71.6 °F 94% 29.95 in 10.0 mi Calm Calm - N/A   Mostly Cloudy
5:55 AM 73.4 °F - 71.6 °F 94% 29.95 in 10.0 mi Calm Calm - N/A   Mostly Cloudy
6:55 AM 75.2 °F - 71.6 °F 89% 29.96 in 10.0 mi Calm Calm - N/A   Overcast
7:55 AM 75.2 °F - 71.6 °F 89% 30.00 in 10.0 mi Calm Calm - N/A   Overcast
8:55 AM 78.8 °F - 73.4 °F 83% 30.02 in 8.0 mi Calm Calm - N/A Rain Light Rain
9:55 AM 78.8 °F - 75.2 °F 89% 30.02 in 8.0 mi West 3.5 mph - N/A Rain Light Rain
10:55 AM 77.0 °F - 75.2 °F 94% 30.07 in 4.0 mi WNW 6.9 mph - N/A Rain Rain
11:55 AM 73.4 °F - 73.4 °F 100% 30.05 in 6.0 mi NNE 8.1 mph - N/A Rain Light Rain
12:55 PM 73.4 °F - 71.6 °F 94% 30.02 in 10.0 mi NNE 9.2 mph - N/A   Mostly Cloudy
1:55 PM 77.0 °F - 73.4 °F 89% 30.03 in 10.0 mi Calm Calm - N/A   Overcast
2:55 PM 78.8 °F - 73.4 °F 83% 30.02 in 10.0 mi Calm Calm - N/A   Overcast
3:55 PM 80.6 °F 85.4 °F 73.4 °F 79% 30.02 in 10.0 mi SSW 3.5 mph - N/A   Mostly Cloudy
4:55 PM 82.4 °F 88.2 °F 73.4 °F 74% 30.04 in 10.0 mi WNW 6.9 mph - N/A   Mostly Cloudy
5:55 PM 82.4 °F 88.2 °F 73.4 °F 74% 30.03 in 10.0 mi Calm Calm - N/A   Mostly Cloudy
6:55 PM 82.4 °F 88.2 °F 73.4 °F 74% 30.03 in 10.0 mi Calm Calm - N/A   Mostly Cloudy
7:55 PM 78.8 °F - 75.2 °F 89% 30.04 in 10.0 mi Calm Calm - N/A   Clear
8:55 PM 75.2 °F - 75.2 °F 100% 30.05 in 10.0 mi Calm Calm - N/A   Clear
9:55 PM 73.4 °F - 73.4 °F 100% 30.07 in 3.0 mi Calm Calm - N/A   Clear
10:55 PM 71.6 °F - 71.6 °F 100% 30.08 in 2.5 mi Calm Calm - N/A   Clear
11:55 PM 71.6 °F - 71.6 °F 100% 30.08 in 1.8 mi Calm Calm - N/A   Clear